Simultaneous Nadir Overpasses (SNOs) Predictions

Prediction of SNOs between GOES-16 and AQUA Satellite Orbit:

Table of predicted SNOs for the next 14.0 days since TLE Epoch: 5/2/2020
Index Date Time (GOES-16) GOES-16 Lat,Lon AQUA Lat,Lon Distance(km) Time Diff (sec)
1 05/02/2020 06:50:43 -0.01, -75.19 0.68, -78.31 355.52 80
2 05/04/2020 06:38:31 -0.01, -75.20 0.04, -75.36 18.52 80
3 05/06/2020 06:23:39 -0.01, -75.21 -0.61, -72.40 319.09 80
4 05/06/2020 18:45:03 0.01, -75.21 -0.47, -77.60 270.94 80
5 05/08/2020 18:35:31 0.01, -75.23 0.12, -74.63 67.24 80
6 05/10/2020 18:23:19 0.01, -75.24 0.77, -71.68 405.82 80
7 05/11/2020 06:44:33 -0.01, -75.25 0.31, -76.83 179.42 80
8 05/13/2020 06:29:40 -0.01, -75.28 -0.29, -73.86 160.00 80
9 05/13/2020 18:51:05 0.00, -75.28 -0.78, -79.07 429.90 80
10 05/15/2020 18:38:52 0.00, -75.32 -0.18, -76.10 89.37 80




NCC Satellite Simultaneous Nadir Overpasses (SNOs) Prediction Service
